Notices

What's New in latest Release from April 7th, 2021:

- Updated Glossary, including Speed of Maximum Gust, and Total Hourly Precipitation

- Updated national and regional climate services offices contacts and prices information

- Addition of station inventory lists for 1981-2010, 1971-2000, and 1961-1990 Normals.

If you haven't already, please take our survey and provide feedback about our website: https://eccc.sondage-survey.ca/f/LanguageSelection.aspx?s=442ca660-fcf1-47c0-95a9-59707d6fd709

Hourly Data Report for November 04, 2018

CARBERRY CS
MANITOBA
Current Station Operator: ECCC - MSC

49°54'20.900" N
99°21'26.800" W
383.50 m
5010547
71170
WZE

Download Data

Hourly Data (November 2018)
Hourly Data Report for November 4, 2018
TIME
LST
Temp Definition
°C
Dew Point Definition
°C
Rel Hum Definition
%
Precip. Amount Definition
mm

Wind Dir Definition
10's deg

Wind Spd Definition
km/h
Visibility Definition
km
Stn Press Definition
kPa
Hmdx Definition


Wind Chill Definition


Weather Definition


00:00 -0.2 -1.8 89 0.0 14 14   97.50   -4 LegendNANA
01:00 -0.3 -1.8 90 0.0 14 10   97.48   -4 LegendNANA
02:00 -0.2 -1.7 90 0.0 15 13   97.41   -4 LegendNANA
03:00 -0.3 -1.4 92 0.0 16 15   97.33   -5 LegendNANA
04:00 -0.2 -1.4 92 0.0 16 15   97.22   -5 LegendNANA
05:00 -1.1 -2.0 94 0.0 15 14   97.12   -6 LegendNANA
06:00 -1.7 -2.4 95 0.0 15 14   97.01   -6 LegendNANA
07:00 -2.0 -2.8 94 0.0 16 12   96.97   -6 LegendNANA
08:00 -2.4 -3.3 94 0.0 15 10   96.97   -6 LegendNANA
09:00 -0.7 -2.5 88 0.0 16 14   96.90   -5 LegendNANA
10:00 1.0 -1.9 81 0.0 16 18   96.76     LegendNANA
11:00 3.7 -1.8 68 0.0 17 19   96.66     LegendNANA
12:00 4.5 -0.5 70 0.0 16 19   96.57     LegendNANA
13:00 4.7 -1.3 65 0.0 15 21   96.46     LegendNANA
14:00 4.2 -0.5 71 0.0 15 20   96.35     LegendNANA
15:00 4.2 0.2 76 0.0 14 23   96.25     LegendNANA
16:00 3.3 0.8 83 0.0 15 21   96.26     LegendNANA
17:00 3.1 0.7 84 0.0 16 24   96.23     LegendNANA
18:00 3.0 1.0 87 0.0 15 16   96.18     LegendNANA
19:00 3.1 1.1 87 0.0 14 17   96.16     LegendNANA
20:00 3.5 0.6 81 0.0 16 23   96.09     LegendNANA
21:00 3.2 0.9 85 0.0 14 19   96.09     LegendNANA
22:00 2.9 0.7 86 0.0 12 16   96.00     LegendNANA
23:00 2.7 0.6 86 0.0 13 9   96.01     LegendNANA

Notes on Data Quality.

Legend

  • E = Estimated
  • M = Missing
  • NA = Not Available*
  • [empty] = Indicates an unobserved value
Date modified: